Time,TemperatureF,DewpointF,PressureIn,WindDirection,WindDirectionDegrees,WindSpeedMPH,WindSpeedGustMPH,Humidity,HourlyPrecipIn,Conditions,Clouds,dailyrainin,SoftwareType,DateUTC
2013-03-14 00:10:00,57.4,38.4,30.15,ESE,112,5.3,-999.0,49,-99.99,,,0.00,Acu-Link.com,2013-03-14 05:10:00,
2013-03-14 00:41:00,55.8,37.9,30.15,ESE,112,4.7,-999.0,51,-99.99,,,0.00,Acu-Link.com,2013-03-14 05:41:00,
2013-03-14 00:56:00,55.2,37.9,30.15,ESE,112,4.2,-999.0,52,-99.99,,,0.00,Acu-Link.com,2013-03-14 05:56:00,
2013-03-14 01:12:00,54.7,37.9,30.14,SE,135,3.7,-999.0,53,-99.99,,,0.00,Acu-Link.com,2013-03-14 06:12:00,
2013-03-14 01:27:00,54.3,38.0,30.14,SE,135,2.2,-999.0,54,-99.99,,,0.00,Acu-Link.com,2013-03-14 06:27:00,
2013-03-14 01:43:00,53.6,37.8,30.14,SE,135,3.2,-999.0,55,-99.99,,,0.00,Acu-Link.com,2013-03-14 06:43:00,
2013-03-14 01:58:00,53.2,37.9,30.14,SE,135,2.7,-999.0,56,-99.99,,,0.00,Acu-Link.com,2013-03-14 06:58:00,
2013-03-14 02:13:00,52.7,37.9,30.14,SE,135,2.2,-999.0,57,-99.99,,,0.00,Acu-Link.com,2013-03-14 07:13:00,
2013-03-14 02:28:00,52.7,38.3,30.14,SE,135,3.7,-999.0,58,-99.99,,,0.00,Acu-Link.com,2013-03-14 07:28:00,
2013-03-14 02:44:00,52.2,38.3,30.14,SE,135,3.7,-999.0,59,-99.99,,,0.00,Acu-Link.com,2013-03-14 07:44:00,
2013-03-14 02:59:00,51.8,37.9,30.14,SE,135,2.7,-999.0,59,-99.99,,,0.00,Acu-Link.com,2013-03-14 07:59:00,
2013-03-14 03:14:00,51.3,38.3,30.14,SE,135,3.2,-999.0,61,-99.99,,,0.00,Acu-Link.com,2013-03-14 08:14:00,
2013-03-14 03:29:00,50.5,38.0,30.13,SE,135,2.2,-999.0,62,-99.99,,,0.00,Acu-Link.com,2013-03-14 08:29:00,
2013-03-14 03:45:00,50.2,38.1,30.13,SE,135,2.7,-999.0,63,-99.99,,,0.00,Acu-Link.com,2013-03-14 08:45:00,
2013-03-14 04:00:00,50.2,38.1,30.13,SE,135,2.7,-999.0,63,-99.99,,,0.00,Acu-Link.com,2013-03-14 09:00:00,
2013-03-14 04:15:00,49.5,38.2,30.13,SE,135,3.7,-999.0,65,-99.99,,,0.00,Acu-Link.com,2013-03-14 09:15:00,
2013-03-14 04:30:00,48.7,37.9,30.13,SE,135,2.7,-999.0,66,-99.99,,,0.00,Acu-Link.com,2013-03-14 09:30:00,
2013-03-14 04:45:00,48.4,38.0,30.12,SE,135,2.2,-999.0,67,-99.99,,,0.00,Acu-Link.com,2013-03-14 09:45:00,
2013-03-14 05:01:00,47.7,38.0,30.13,SE,135,1.7,-999.0,69,-99.99,,,0.00,Acu-Link.com,2013-03-14 10:01:00,
2013-03-14 05:16:00,47.3,38.0,30.13,SE,135,2.7,-999.0,70,-99.99,,,0.00,Acu-Link.com,2013-03-14 10:16:00,
2013-03-14 05:46:00,47.8,38.1,30.13,SE,135,3.7,-999.0,69,-99.99,,,0.00,Acu-Link.com,2013-03-14 10:46:00,
2013-03-14 06:01:00,47.7,38.0,30.13,SE,135,3.2,-999.0,69,-99.99,,,0.00,Acu-Link.com,2013-03-14 11:01:00,
2013-03-14 06:17:00,47.3,38.0,30.14,SE,135,0.0,-999.0,70,-99.99,,,0.00,Acu-Link.com,2013-03-14 11:17:00,
2013-03-14 06:32:00,47.1,38.2,30.15,SE,135,2.7,-999.0,71,-99.99,,,0.00,Acu-Link.com,2013-03-14 11:32:00,
2013-03-14 06:47:00,46.6,38.1,30.16,SE,135,2.2,-999.0,72,-99.99,,,0.00,Acu-Link.com,2013-03-14 11:47:00,
2013-03-14 07:03:00,45.9,38.1,30.16,SE,135,2.2,-999.0,74,-99.99,,,0.00,Acu-Link.com,2013-03-14 12:03:00,
2013-03-14 07:18:00,45.3,37.9,30.16,SE,135,4.7,-999.0,75,-99.99,,,0.00,Acu-Link.com,2013-03-14 12:18:00,
2013-03-14 07:33:00,45.1,37.7,30.17,SE,135,3.7,-999.0,75,-99.99,,,0.00,Acu-Link.com,2013-03-14 12:33:00,
2013-03-14 07:48:00,44.8,37.7,30.17,SE,135,2.2,-999.0,76,-99.99,,,0.00,Acu-Link.com,2013-03-14 12:48:00,
2013-03-14 08:03:00,45.7,38.2,30.17,SE,135,3.2,-999.0,75,-99.99,,,0.00,Acu-Link.com,2013-03-14 13:03:00,
2013-03-14 08:18:00,47.5,38.6,30.17,SE,135,3.7,-999.0,71,-99.99,,,0.00,Acu-Link.com,2013-03-14 13:18:00,
2013-03-14 08:33:00,50.0,38.7,30.19,SE,135,2.2,-999.0,65,-99.99,,,0.00,Acu-Link.com,2013-03-14 13:33:00,
2013-03-14 08:48:00,52.3,39.3,30.19,SE,135,3.2,-999.0,61,-99.99,,,0.00,Acu-Link.com,2013-03-14 13:48:00,
2013-03-14 09:04:00,54.3,39.4,30.19,SE,135,4.2,-999.0,57,-99.99,,,0.00,Acu-Link.com,2013-03-14 14:04:00,
2013-03-14 09:19:00,56.3,39.9,30.20,SSE,157,3.7,-999.0,54,-99.99,,,0.00,Acu-Link.com,2013-03-14 14:19:00,
2013-03-14 09:34:00,58.1,40.6,30.20,SSE,157,2.7,-999.0,52,-99.99,,,0.00,Acu-Link.com,2013-03-14 14:34:00,
2013-03-14 09:50:00,60.3,42.1,30.21,SSW,202,2.7,-999.0,51,-99.99,,,0.00,Acu-Link.com,2013-03-14 14:50:00,
2013-03-14 10:05:00,59.5,42.4,30.21,SSW,202,5.8,-999.0,53,-99.99,,,0.00,Acu-Link.com,2013-03-14 15:05:00,
2013-03-14 10:20:00,60.4,43.2,30.21,SW,225,5.3,-999.0,53,-99.99,,,0.00,Acu-Link.com,2013-03-14 15:20:00,
2013-03-14 10:35:00,61.5,43.7,30.21,SSW,202,7.8,-999.0,52,-99.99,,,0.00,Acu-Link.com,2013-03-14 15:35:00,
2013-03-14 10:50:00,63.3,43.8,30.21,SSW,202,5.3,-999.0,49,-99.99,,,0.00,Acu-Link.com,2013-03-14 15:50:00,
2013-03-14 11:05:00,64.8,43.5,30.21,SSW,202,11.9,-999.0,46,-99.99,,,0.00,Acu-Link.com,2013-03-14 16:05:00,
2013-03-14 11:20:00,65.7,43.2,30.21,SSW,202,11.4,-999.0,44,-99.99,,,0.00,Acu-Link.com,2013-03-14 16:20:00,
2013-03-14 11:35:00,67.1,45.0,30.21,SSW,202,5.8,-999.0,45,-99.99,,,0.00,Acu-Link.com,2013-03-14 16:35:00,
2013-03-14 11:50:00,67.6,44.9,30.20,South,180,15.5,-999.0,44,-99.99,,,0.00,Acu-Link.com,2013-03-14 16:50:00,
2013-03-14 12:05:00,70.2,45.4,30.19,SW,225,11.9,-999.0,41,-99.99,,,0.00,Acu-Link.com,2013-03-14 17:05:00,
2013-03-14 12:21:00,69.8,45.0,30.19,South,180,8.3,-999.0,41,-99.99,,,0.00,Acu-Link.com,2013-03-14 17:21:00,
2013-03-14 12:36:00,71.4,45.8,30.18,SE,135,7.8,-999.0,40,-99.99,,,0.00,Acu-Link.com,2013-03-14 17:36:00,
2013-03-14 12:51:00,72.9,46.5,30.18,South,180,7.8,-999.0,39,-99.99,,,0.00,Acu-Link.com,2013-03-14 17:51:00,
2013-03-14 13:06:00,73.9,46.7,30.18,SSW,202,6.8,-999.0,38,-99.99,,,0.00,Acu-Link.com,2013-03-14 18:06:00,
2013-03-14 13:37:00,74.5,47.2,30.16,SW,225,6.8,-999.0,38,-99.99,,,0.00,Acu-Link.com,2013-03-14 18:37:00,
2013-03-14 13:52:00,75.2,47.8,30.15,East,90,5.3,-999.0,38,-99.99,,,0.00,Acu-Link.com,2013-03-14 18:52:00,
2013-03-14 14:07:00,74.7,47.4,30.14,SW,225,14.5,-999.0,38,-99.99,,,0.00,Acu-Link.com,2013-03-14 19:07:00,
2013-03-14 14:22:00,77.0,48.0,30.13,SSW,202,5.8,-999.0,36,-99.99,,,0.00,Acu-Link.com,2013-03-14 19:22:00,
2013-03-14 14:37:00,78.4,49.2,30.12,SSE,157,4.7,-999.0,36,-99.99,,,0.00,Acu-Link.com,2013-03-14 19:37:00,
2013-03-14 14:53:00,76.8,47.8,30.11,South,180,4.7,-999.0,36,-99.99,,,0.00,Acu-Link.com,2013-03-14 19:53:00,
2013-03-14 15:08:00,79.0,47.4,30.10,SSE,157,5.8,-999.0,33,-99.99,,,0.00,Acu-Link.com,2013-03-14 20:08:00,
2013-03-14 15:23:00,79.2,47.6,30.09,South,180,6.8,-999.0,33,-99.99,,,0.00,Acu-Link.com,2013-03-14 20:23:00,
2013-03-14 15:38:00,78.6,47.9,30.08,SE,135,2.7,-999.0,34,-99.99,,,0.00,Acu-Link.com,2013-03-14 20:38:00,
2013-03-14 15:53:00,79.0,47.4,30.08,SSW,202,8.3,-999.0,33,-99.99,,,0.00,Acu-Link.com,2013-03-14 20:53:00,
2013-03-14 16:08:00,80.8,48.2,30.07,South,180,6.3,-999.0,32,-99.99,,,0.00,Acu-Link.com,2013-03-14 21:08:00,
2013-03-14 16:23:00,80.2,45.9,30.06,SW,225,6.8,-999.0,30,-99.99,,,0.00,Acu-Link.com,2013-03-14 21:23:00,
2013-03-14 16:38:00,80.2,47.6,30.06,South,180,3.7,-999.0,32,-99.99,,,0.00,Acu-Link.com,2013-03-14 21:38:00,
2013-03-14 16:53:00,80.6,46.3,30.05,SSE,157,4.7,-999.0,30,-99.99,,,0.00,Acu-Link.com,2013-03-14 21:53:00,
2013-03-14 17:09:00,79.9,47.4,30.04,South,180,8.3,-999.0,32,-99.99,,,0.00,Acu-Link.com,2013-03-14 22:09:00,
2013-03-14 17:24:00,79.3,44.3,30.04,SW,225,7.8,-999.0,29,-99.99,,,0.00,Acu-Link.com,2013-03-14 22:24:00,
2013-03-14 17:39:00,79.9,47.4,30.04,SSE,157,6.3,-999.0,32,-99.99,,,0.00,Acu-Link.com,2013-03-14 22:39:00,
2013-03-14 17:55:00,79.9,45.7,30.03,SSW,202,4.2,-999.0,30,-99.99,,,0.00,Acu-Link.com,2013-03-14 22:55:00,
2013-03-14 18:10:00,79.3,46.0,30.03,SSW,202,5.3,-999.0,31,-99.99,,,0.00,Acu-Link.com,2013-03-14 23:10:00,
2013-03-14 18:25:00,79.2,46.8,30.02,South,180,3.2,-999.0,32,-99.99,,,0.00,Acu-Link.com,2013-03-14 23:25:00,
2013-03-14 18:40:00,78.8,47.2,30.02,South,180,8.3,-999.0,33,-99.99,,,0.00,Acu-Link.com,2013-03-14 23:40:00,
2013-03-14 19:12:00,75.7,46.8,30.02,SSE,157,5.3,-999.0,36,-99.99,,,0.00,Acu-Link.com,2013-03-15 00:12:00,
2013-03-14 19:27:00,74.5,46.5,30.02,SSW,202,4.2,-999.0,37,-99.99,,,0.00,Acu-Link.com,2013-03-15 00:27:00,
2013-03-14 19:42:00,72.7,45.6,30.02,SSE,157,5.3,-999.0,38,-99.99,,,0.00,Acu-Link.com,2013-03-15 00:42:00,
2013-03-14 19:57:00,71.4,45.8,30.02,SE,135,4.7,-999.0,40,-99.99,,,0.00,Acu-Link.com,2013-03-15 00:57:00,
2013-03-14 20:13:00,70.2,45.4,30.02,SSE,157,2.7,-999.0,41,-99.99,,,0.00,Acu-Link.com,2013-03-15 01:13:00,
2013-03-14 20:28:00,68.9,44.9,30.02,SSE,157,3.2,-999.0,42,-99.99,,,0.00,Acu-Link.com,2013-03-15 01:28:00,
2013-03-14 20:43:00,67.8,44.5,30.02,SSE,157,2.7,-999.0,43,-99.99,,,0.00,Acu-Link.com,2013-03-15 01:43:00,
2013-03-14 20:59:00,66.4,44.4,30.02,SE,135,3.2,-999.0,45,-99.99,,,0.00,Acu-Link.com,2013-03-15 01:59:00,
2013-03-14 21:14:00,65.7,44.3,30.03,SSE,157,3.7,-999.0,46,-99.99,,,0.00,Acu-Link.com,2013-03-15 02:14:00,
2013-03-14 21:29:00,65.5,44.7,30.03,SE,135,3.7,-999.0,47,-99.99,,,0.00,Acu-Link.com,2013-03-15 02:29:00,
2013-03-14 21:44:00,64.2,44.1,30.02,SSE,157,3.7,-999.0,48,-99.99,,,0.00,Acu-Link.com,2013-03-15 02:44:00,
2013-03-14 21:59:00,64.0,44.5,30.03,SE,135,4.2,-999.0,49,-99.99,,,0.00,Acu-Link.com,2013-03-15 02:59:00,
2013-03-14 22:15:00,62.8,44.4,30.03,SE,135,3.2,-999.0,51,-99.99,,,0.00,Acu-Link.com,2013-03-15 03:15:00,
2013-03-14 22:30:00,62.4,44.0,30.03,SE,135,3.7,-999.0,51,-99.99,,,0.00,Acu-Link.com,2013-03-15 03:30:00,
2013-03-14 22:45:00,62.2,43.8,30.03,SE,135,3.7,-999.0,51,-99.99,,,0.00,Acu-Link.com,2013-03-15 03:45:00,
2013-03-14 23:00:00,61.9,44.1,30.03,SSE,157,2.7,-999.0,52,-99.99,,,0.00,Acu-Link.com,2013-03-15 04:00:00,
2013-03-14 23:15:00,61.9,44.1,30.03,SSE,157,3.7,-999.0,52,-99.99,,,0.00,Acu-Link.com,2013-03-15 04:15:00,
2013-03-14 23:46:00,60.3,43.6,30.04,SE,135,3.7,-999.0,54,-99.99,,,0.00,Acu-Link.com,2013-03-15 04:46:00,